Weather History for Cody, WY

Change the Weather History Date:

Friday, May 10, 2013

  Actual Average Record
Temperature  
Mean Temperature 58 °F -  
Max Temperature 69 °F 63 °F 82 °F (1936)
Min Temperature 46 °F 38 °F 23 °F (1927)
Degree Days  
Heating Degree Days 8    
Growing Degree Days 8 (Base 50)    
Moisture  
Dew Point 34 °F    
Average Humidity 42    
Maximum Humidity 58    
Minimum Humidity 23    
Precipitation  
Precipitation 0.00 in - - ()
Sea Level Pressure  
Sea Level Pressure 30.26 in    
Wind  
Wind Speed 9 mph (NW)    
Max Wind Speed 24 mph    
Max Gust Speed 33 mph    
Visibility 10 miles    
Events      
Averages and records for this station are not official NWS values.
T = Trace of Precipitation, MM = Missing Value Source: NWS Daily Summary

Daily Weather History Graph

Daily Weather History Graph

Search for Another Location

Airport:

Trip Planner

Search our weather history database for the weather conditions in past years. The results will help you decide how hot, cold, wet, or windy it might be!

Date:

Astronomy

May. 10, 2013 Rise Set
Actual Time 5:53 AM MDT 8:31 PM MDT
Civil Twilight 5:20 AM MDT 9:05 PM MDT
Nautical Twilight 4:39 AM MDT 9:46 PM MDT
Astronomical Twilight 3:51 AM MDT 10:35 PM MDT
Moon 6:20 AM MDT (5/10) 9:25 PM MDT (5/10)
Length of Visible Light 15h 44m
Length of Day
14h 37m
New Moon, 1% of the Moon is Illuminated
May 10
New Moon
May 17
First Quarter
May 24
Full
May 31
Last Quarter
Jun 8
New

Hourly Weather History & Observations

Time (MDT) Temp. Windchill Dew Point Humidity Pressure Visibility Wind Dir Wind Speed Gust Speed Precip Events Conditions
12:15 AM 51.8 °F - 37.4 °F 58% 30.19 in 10.0 mi WSW 6.9 mph - N/A   Clear
12:35 AM 51.8 °F - 37.4 °F 58% 30.19 in 10.0 mi SW 8.1 mph - N/A   Clear
12:55 AM 50.0 °F - 35.6 °F 58% 30.19 in 10.0 mi SW 9.2 mph - N/A   Clear
1:15 AM 51.8 °F - 35.6 °F 54% 30.19 in 10.0 mi SW 9.2 mph - N/A   Clear
1:35 AM 51.8 °F - 35.6 °F 54% 30.19 in 10.0 mi WSW 8.1 mph - N/A   Clear
1:55 AM 51.8 °F - 35.6 °F 54% 30.19 in 10.0 mi WSW 4.6 mph - N/A   Clear
2:15 AM 48.2 °F - 33.8 °F 58% 30.19 in 10.0 mi SW 9.2 mph - N/A   Clear
2:35 AM 48.2 °F - 33.8 °F 58% 30.19 in 10.0 mi SW 10.4 mph - N/A   Clear
2:55 AM 51.8 °F - 33.8 °F 50% 30.19 in 10.0 mi WSW 10.4 mph - N/A   Clear
3:15 AM 48.2 °F - 33.8 °F 58% 30.19 in 10.0 mi SW 6.9 mph - N/A   Clear
3:35 AM 48.2 °F - 33.8 °F 58% 30.20 in 10.0 mi SW 9.2 mph - N/A   Clear
4:15 AM 48.2 °F - 33.8 °F 58% 30.21 in 10.0 mi SW 4.6 mph - N/A   Clear
4:35 AM 48.2 °F - 32.0 °F 54% 30.21 in 10.0 mi SW 6.9 mph - N/A   Clear
4:55 AM 46.4 °F - 30.2 °F 53% 30.21 in 10.0 mi Calm Calm - N/A   Clear
5:15 AM 48.2 °F - 32.0 °F 54% 30.21 in 10.0 mi SW 4.6 mph - N/A   Clear
5:35 AM 46.4 °F 42.9 °F 32.0 °F 57% 30.21 in 10.0 mi SW 6.9 mph - N/A   Clear
6:15 AM 48.2 °F - 32.0 °F 54% 30.21 in 10.0 mi WSW 4.6 mph - N/A   Clear
6:35 AM 48.2 °F - 32.0 °F 54% 30.22 in 10.0 mi WSW 8.1 mph - N/A   Clear
7:35 AM 53.6 °F - 33.8 °F 47% 30.23 in 10.0 mi WSW 6.9 mph - N/A   Scattered Clouds
7:55 AM 55.4 °F - 32.0 °F 41% 30.23 in 10.0 mi WSW 6.9 mph - N/A   Partly Cloudy
8:15 AM 57.2 °F - 32.0 °F 38% 30.23 in 10.0 mi WSW 8.1 mph - N/A   Clear
8:35 AM 59.0 °F - 33.8 °F 39% 30.23 in 10.0 mi WSW 6.9 mph - N/A   Clear
8:55 AM 60.8 °F - 33.8 °F 36% 30.23 in 10.0 mi WSW 6.9 mph - N/A   Clear
9:55 AM 66.2 °F - 33.8 °F 30% 30.23 in 10.0 mi Calm Calm - N/A   Clear
10:15 AM 66.2 °F - 33.8 °F 30% 30.23 in 10.0 mi North 5.8 mph - N/A   Clear
10:35 AM 66.2 °F - 33.8 °F 30% 30.24 in 10.0 mi North 10.4 mph - N/A   Clear
11:15 AM 66.2 °F - 35.6 °F 32% 30.25 in 10.0 mi NNE 8.1 mph 18.4 mph N/A   Clear
11:35 AM 66.2 °F - 35.6 °F 32% 30.25 in 10.0 mi NNW 6.9 mph - N/A   Clear
11:55 AM 68.0 °F - 28.4 °F 23% 30.26 in 10.0 mi NNE 5.8 mph 19.6 mph N/A   Clear
12:15 PM 68.0 °F - 30.2 °F 24% 30.26 in 10.0 mi NE 4.6 mph - N/A   Partly Cloudy
12:35 PM 69.8 °F - 30.2 °F 23% 30.25 in 10.0 mi NE 12.7 mph 18.4 mph N/A   Clear
12:55 PM 69.8 °F - 32.0 °F 25% 30.25 in 10.0 mi NE 10.4 mph 17.3 mph N/A   Clear
1:15 PM 69.8 °F - 30.2 °F 23% 30.26 in 10.0 mi NNE 13.8 mph 23.0 mph N/A   Mostly Cloudy
1:35 PM 64.4 °F - 32.0 °F 30% 30.28 in 10.0 mi North 24.2 mph 33.4 mph N/A   Mostly Cloudy
1:55 PM 64.4 °F - 33.8 °F 32% 30.29 in 10.0 mi NNW 21.9 mph 31.1 mph N/A   Overcast
2:15 PM 66.2 °F - 37.4 °F 35% 30.29 in 10.0 mi NW 18.4 mph 32.2 mph N/A   Scattered Clouds
2:35 PM 62.6 °F - 37.4 °F 39% 30.30 in 10.0 mi NW 16.1 mph 23.0 mph N/A   Scattered Clouds
2:55 PM 64.4 °F - 37.4 °F 37% 30.30 in 10.0 mi NNW 19.6 mph 25.3 mph N/A   Overcast
3:15 PM 64.4 °F - 39.2 °F 40% 30.30 in 10.0 mi North 19.6 mph 25.3 mph N/A   Mostly Cloudy
3:35 PM 64.4 °F - 37.4 °F 37% 30.30 in 10.0 mi NNW 17.3 mph 25.3 mph N/A   Mostly Cloudy
4:15 PM 64.4 °F - 39.2 °F 40% 30.29 in 10.0 mi North 15.0 mph 21.9 mph N/A   Mostly Cloudy
4:35 PM 66.2 °F - 37.4 °F 35% 30.29 in 10.0 mi North 17.3 mph 24.2 mph N/A   Clear
4:55 PM 66.2 °F - 39.2 °F 37% 30.29 in 10.0 mi North 17.3 mph 21.9 mph N/A   Clear
5:15 PM 64.4 °F - 37.4 °F 37% 30.29 in 10.0 mi NNE 16.1 mph 21.9 mph N/A   Clear
5:35 PM 64.4 °F - 37.4 °F 37% 30.29 in 10.0 mi North 16.1 mph 21.9 mph N/A   Clear
6:15 PM 64.4 °F - 37.4 °F 37% 30.29 in 10.0 mi North 16.1 mph 19.6 mph N/A   Partly Cloudy
6:35 PM 64.4 °F - 35.6 °F 34% 30.29 in 10.0 mi North 15.0 mph - N/A   Clear
6:55 PM 62.6 °F - 35.6 °F 37% 30.29 in 10.0 mi North 13.8 mph - N/A   Clear
7:15 PM 62.6 °F - 35.6 °F 37% 30.30 in 10.0 mi North 13.8 mph 17.3 mph N/A   Mostly Cloudy
7:35 PM 62.6 °F - 35.6 °F 37% 30.30 in 10.0 mi North 10.4 mph - N/A   Mostly Cloudy
7:55 PM 60.8 °F - 35.6 °F 39% 30.31 in 10.0 mi North 15.0 mph - N/A   Mostly Cloudy
8:15 PM 60.8 °F - 35.6 °F 39% 30.32 in 10.0 mi North 13.8 mph 18.4 mph N/A   Overcast
8:55 PM 57.2 °F - 33.8 °F 41% 30.34 in 10.0 mi North 8.1 mph - N/A   Overcast
9:15 PM 57.2 °F - 33.8 °F 41% 30.34 in 10.0 mi NNW 4.6 mph - N/A   Mostly Cloudy
9:35 PM 55.4 °F - 33.8 °F 44% 30.35 in 10.0 mi WNW 4.6 mph - N/A   Partly Cloudy
9:55 PM 55.4 °F - 33.8 °F 44% 30.36 in 10.0 mi Calm Calm - N/A   Clear
10:15 PM 53.6 °F - 33.8 °F 47% 30.36 in 10.0 mi WNW 4.6 mph - N/A   Clear
10:35 PM 51.8 °F - 33.8 °F 50% 30.36 in 10.0 mi NW 3.5 mph - N/A   Clear
10:55 PM 51.8 °F - 32.0 °F 47% 30.36 in 10.0 mi Calm Calm - N/A   Clear
11:15 PM 50.0 °F - 30.2 °F 47% 30.37 in 10.0 mi Calm Calm - N/A   Clear
11:35 PM 51.8 °F - 30.2 °F 44% 30.37 in 10.0 mi Calm Calm - N/A   Clear
11:55 PM 50.0 °F - 30.2 °F 47% 30.37 in 10.0 mi Calm Calm - N/A   Clear